• In Uzbekistan
  • List of Countries
  • For 7 days
  • Water Temperature
  • Satellite Maps
  • Weather Map
  • Weather Widgets
  • user-avatar
    Login

    Hourly Weather Maseru

    Today, 17 January, Thursday

    Time Temperature Precipitation Wind Pressure Humidity
    00:00 +21°C° 0 mm 2 mps 635 mmHg 59%
    01:00 +20°C° 0 mm 2 mps 635 mmHg 65%
    02:00 +20°C° 0 mm 1 mps 635 mmHg 72%
    03:00 +20°C° 0 mm 1 mps 635 mmHg 75%
    04:00 +19°C° 0 mm 1 mps 635 mmHg 79%
    05:00 +19°C° 0 mm 1 mps 635 mmHg 83%
    06:00 +20°C° 0.1 mm 2 mps 635 mmHg 74%
    07:00 +21°C° 0.1 mm 3 mps 636 mmHg 65%
    08:00 +24°C° 0.1 mm 3 mps 636 mmHg 56%
    09:00 +26°C° 0 mm 4 mps 636 mmHg 48%
    10:00 +29°C° 0 mm 5 mps 637 mmHg 39%
    11:00 +32°C° 0 mm 5 mps 637 mmHg 31%
    12:00 +33°C° 0 mm 6 mps 637 mmHg 26%
    13:00 +35°C° 0 mm 6 mps 637 mmHg 21%
    14:00 +36°C° 0 mm 7 mps 636 mmHg 16%
    15:00 +36°C° 0 mm 6 mps 636 mmHg 15%
    16:00 +36°C° 0 mm 5 mps 636 mmHg 13%
    17:00 +36°C° 0 mm 5 mps 635 mmHg 12%
    18:00 +33°C° 0 mm 4 mps 634 mmHg 14%
    19:00 +29°C° 0 mm 2 mps 633 mmHg 16%
    20:00 +25°C° 0 mm 1 mps 632 mmHg 18%
    21:00 +25°C° 0 mm 1 mps 632 mmHg 18%
    22:00 +24°C° 0 mm 1 mps 633 mmHg 19%
    23:00 +23°C° 0 mm 1 mps 633 mmHg 20%

    Tomorrow, 18 January, Friday

    Time Temperature Precipitation Wind Pressure Humidity
    00:00 +23°C° 0 mm 1 mps 633 mmHg 23%
    01:00 +21°C° 0 mm 2 mps 633 mmHg 26%
    02:00 +21°C° 0 mm 2 mps 633 mmHg 29%
    03:00 +20°C° 0 mm 2 mps 633 mmHg 34%
    04:00 +19°C° 0 mm 2 mps 633 mmHg 40%
    05:00 +18°C° 0 mm 2 mps 632 mmHg 46%
    06:00 +21°C° 0 mm 2 mps 633 mmHg 45%
    07:00 +24°C° 0 mm 3 mps 634 mmHg 44%
    08:00 +26°C° 0 mm 3 mps 635 mmHg 44%
    09:00 +28°C° 0 mm 3 mps 635 mmHg 35%
    10:00 +31°C° 0 mm 3 mps 635 mmHg 26%
    11:00 +34°C° 0 mm 3 mps 636 mmHg 16%
    12:00 +35°C° 0 mm 5 mps 636 mmHg 13%
    13:00 +38°C° 0 mm 6 mps 636 mmHg 10%
    14:00 +39°C° 0 mm 7 mps 636 mmHg 7%
    15:00 +39°C° 0 mm 7 mps 635 mmHg 7%
    16:00 +38°C° 0 mm 7 mps 634 mmHg 7%
    17:00 +38°C° 0 mm 7 mps 634 mmHg 7%
    18:00 +34°C° 0 mm 5 mps 633 mmHg 9%
    19:00 +30°C° 0 mm 4 mps 633 mmHg 11%
    20:00 +26°C° 0 mm 2 mps 632 mmHg 13%
    21:00 +25°C° 0 mm 2 mps 632 mmHg 13%
    22:00 +25°C° 0 mm 3 mps 633 mmHg 14%
    23:00 +24°C° 0 mm 3 mps 633 mmHg 14%

    Day after tomorrow, 19 January, Saturday

    Time Temperature Precipitation Wind Pressure Humidity
    00:00 +22°C° 0 mm 3 mps 633 mmHg 15%
    01:00 +20°C° 0 mm 2 mps 633 mmHg 17%
    02:00 +19°C° 0 mm 2 mps 632 mmHg 18%
    03:00 +18°C° 0 mm 2 mps 632 mmHg 21%
    04:00 +17°C° 0 mm 2 mps 632 mmHg 24%
    05:00 +16°C° 0 mm 1 mps 632 mmHg 28%
    06:00 +18°C° 0 mm 2 mps 633 mmHg 27%
    07:00 +20°C° 0 mm 2 mps 634 mmHg 26%
    08:00 +24°C° 0 mm 2 mps 635 mmHg 25%
    09:00 +26°C° 0 mm 3 mps 636 mmHg 22%
    10:00 +27°C° 0 mm 3 mps 636 mmHg 18%
    11:00 +29°C° 0 mm 4 mps 637 mmHg 15%
    12:00 +30°C° 0 mm 4 mps 637 mmHg 14%
    13:00 +32°C° 0 mm 5 mps 637 mmHg 13%
    14:00 +33°C° 0 mm 5 mps 637 mmHg 13%
    15:00 +32°C° 0 mm 6 mps 637 mmHg 14%
    16:00 +32°C° 0 mm 7 mps 637 mmHg 15%
    17:00 +31°C° 0 mm 8 mps 636 mmHg 16%
    18:00 +28°C° 0 mm 7 mps 636 mmHg 19%
    19:00 +24°C° 0 mm 6 mps 637 mmHg 22%
    20:00 +22°C° 0 mm 5 mps 637 mmHg 24%
    21:00 +20°C° 0 mm 4 mps 637 mmHg 32%
    22:00 +19°C° 0 mm 3 mps 637 mmHg 39%
    23:00 +17°C° 0 mm 2 mps 638 mmHg 47%

    20 January, Sunday

    Time Temperature Precipitation Wind Pressure Humidity
    00:00 +16°C° 0 mm 2 mps 638 mmHg 52%
    01:00 +15°C° 0 mm 1 mps 638 mmHg 58%
    02:00 +14°C° 0 mm 1 mps 637 mmHg 64%
    03:00 +14°C° 0 mm 1 mps 638 mmHg 68%
    04:00 +13°C° 0 mm 1 mps 638 mmHg 71%
    05:00 +13°C° 0 mm 1 mps 638 mmHg 74%
    06:00 +14°C° 0 mm 1 mps 639 mmHg 67%
    07:00 +16°C° 0 mm 1 mps 639 mmHg 60%
    08:00 +19°C° 0 mm 1 mps 640 mmHg 53%
    09:00 +21°C° 0 mm 1 mps 640 mmHg 45%
    10:00 +23°C° 0 mm 2 mps 641 mmHg 37%
    11:00 +25°C° 0 mm 2 mps 641 mmHg 29%
    12:00 +26°C° 0 mm 2 mps 640 mmHg 25%
    13:00 +28°C° 0 mm 3 mps 640 mmHg 20%
    14:00 +29°C° 0 mm 3 mps 640 mmHg 16%
    15:00 +30°C° 0 mm 3 mps 640 mmHg 15%
    16:00 +30°C° 0 mm 3 mps 640 mmHg 15%
    17:00 +30°C° 0 mm 4 mps 640 mmHg 14%
    18:00 +28°C° 0 mm 3 mps 639 mmHg 17%
    19:00 +25°C° 0 mm 3 mps 639 mmHg 19%
    20:00 +23°C° 0 mm 2 mps 639 mmHg 22%
    21:00 +20°C° 0 mm 2 mps 639 mmHg 25%
    22:00 +20°C° 0 mm 1 mps 639 mmHg 27%
    23:00 +19°C° 0 mm 1 mps 639 mmHg 30%

    21 January, Monday

    Time Temperature Precipitation Wind Pressure Humidity
    00:00 +18°C° 0 mm 1 mps 639 mmHg 34%
    01:00 +16°C° 0 mm 1 mps 639 mmHg 38%
    02:00 +16°C° 0 mm 1 mps 638 mmHg 42%
    03:00 +15°C° 0 mm 1 mps 638 mmHg 48%
    04:00 +14°C° 0 mm 1 mps 638 mmHg 54%
    05:00 +13°C° 0 mm 1 mps 638 mmHg 60%
    06:00 +16°C° 0 mm 1 mps 639 mmHg 54%
    07:00 +18°C° 0 mm 2 mps 640 mmHg 49%
    08:00 +21°C° 0 mm 2 mps 641 mmHg 43%
    09:00 +24°C° 0 mm 2 mps 641 mmHg 38%
    10:00 +26°C° 0 mm 2 mps 641 mmHg 33%
    11:00 +28°C° 0 mm 2 mps 641 mmHg 29%
    12:00 +29°C° 0 mm 3 mps 640 mmHg 25%
    13:00 +31°C° 0 mm 3 mps 640 mmHg 21%
    14:00 +33°C° 0 mm 4 mps 640 mmHg 17%
    15:00 +33°C° 0 mm 4 mps 639 mmHg 16%
    16:00 +34°C° 0 mm 4 mps 639 mmHg 16%
    17:00 +34°C° 0 mm 4 mps 639 mmHg 16%
    18:00 +30°C° 0 mm 3 mps 638 mmHg 20%
    19:00 +27°C° 0 mm 2 mps 637 mmHg 24%
    20:00 +23°C° 0 mm 1 mps 636 mmHg 28%
    21:00 +23°C° 0 mm 1 mps 636 mmHg 29%
    22:00 +22°C° 0 mm 1 mps 636 mmHg 29%
    23:00 +22°C° 0 mm 1 mps 636 mmHg 30%

    22 January, Tuesday

    Time Temperature Precipitation Wind Pressure Humidity
    00:00 +21°C° 0 mm 1 mps 636 mmHg 31%
    01:00 +21°C° 0 mm 1 mps 635 mmHg 32%
    02:00 +21°C° 0 mm 1 mps 635 mmHg 33%
    03:00 +20°C° 0 mm 1 mps 635 mmHg 33%
    04:00 +20°C° 0 mm 1 mps 636 mmHg 33%
    05:00 +19°C° 0 mm 2 mps 636 mmHg 33%
    06:00 +23°C° 0 mm 2 mps 637 mmHg 30%
    07:00 +25°C° 0 mm 2 mps 638 mmHg 27%
    08:00 +27°C° 0 mm 2 mps 639 mmHg 24%
    09:00 +29°C° 0 mm 3 mps 639 mmHg 22%
    10:00 +31°C° 0 mm 3 mps 639 mmHg 21%
    11:00 +34°C° 0 mm 3 mps 639 mmHg 19%
    12:00 +35°C° 0 mm 3 mps 638 mmHg 18%
    13:00 +36°C° 0 mm 2 mps 638 mmHg 16%
    14:00 +37°C° 0 mm 2 mps 638 mmHg 14%
    15:00 +37°C° 0 mm 2 mps 637 mmHg 14%
    16:00 +37°C° 0 mm 2 mps 637 mmHg 13%
    17:00 +37°C° 0 mm 2 mps 637 mmHg 13%
    18:00 +33°C° 0 mm 1 mps 636 mmHg 16%
    19:00 +31°C° 0 mm 1 mps 636 mmHg 19%
    20:00 +28°C° 0 mm 1 mps 635 mmHg 22%
    21:00 +27°C° 0 mm 1 mps 636 mmHg 24%
    22:00 +27°C° 0 mm 1 mps 636 mmHg 25%
    23:00 +26°C° 0 mm 1 mps 636 mmHg 26%
    Show more